GSAT0101 (GALILEO-PFM)

Last updated on Nov. 19, 2019, 4:25 a.m. UTC

1 37846U 11060A   19322.19535755 -.00000060  00000-0  00000+0 0  9999
2 37846  56.4876  47.1320 0001890 305.1271  54.8856  1.70475392 50289
UTC
Height (km)
Latitude
Longitude
Inclination
Orbital Period
UTC large
Height (km)
Speed (km/s)
/
Latitude / Longitude
Inclination (degrees)
Orbital Period (minutes)
Azimuth
Elevation
Range (km)
Doppler Factor
iOS Compass Heading
iOS Angle

Next 30 passes for location: Hong Kong

Rise time Rise Azimuth (degrees) Set time Set Azimuth (degrees) Duration Max altitude (degrees)

No matching passes for this satellites